When you browse on this site, cookies collect data to enhance your experience and personalize the content and advertising you see.
Visit our Privacy Policy to learn more. By continuing to use the site, you agree to this use of cookies and data.

Stündliche Wetter Çaycuma

Heute, 4 Juli, Samstag

Zeit Temperatur Niederschläge Wind Luftdruck Luftfeuchtigkeit
00:00 +22°C° 0 mm 1 m/S 753 mmHg 85%
01:00 +22°C° 0 mm 1 m/S 753 mmHg 85%
02:00 +22°C° 0 mm 1 m/S 753 mmHg 84%
03:00 +22°C° 0 mm 1 m/S 753 mmHg 83%
04:00 +22°C° 0 mm 1 m/S 753 mmHg 82%
05:00 +22°C° 0 mm 1 m/S 753 mmHg 82%
06:00 +24°C° 0 mm 1 m/S 753 mmHg 73%
07:00 +27°C° 0 mm 1 m/S 753 mmHg 64%
08:00 +30°C° 0 mm 1 m/S 753 mmHg 56%
09:00 +31°C° 0 mm 1 m/S 753 mmHg 53%
10:00 +32°C° 0 mm 2 m/S 754 mmHg 50%
11:00 +34°C° 0 mm 2 m/S 754 mmHg 47%
12:00 +34°C° 0 mm 3 m/S 753 mmHg 48%
13:00 +34°C° 0 mm 3 m/S 753 mmHg 50%
14:00 +34°C° 0 mm 3 m/S 753 mmHg 52%
15:00 +33°C° 0 mm 3 m/S 753 mmHg 55%
16:00 +32°C° 0 mm 2 m/S 753 mmHg 58%
17:00 +31°C° 0 mm 2 m/S 753 mmHg 61%
18:00 +29°C° 0 mm 2 m/S 753 mmHg 70%
19:00 +26°C° 0 mm 1 m/S 753 mmHg 79%
20:00 +22°C° 0 mm 0 m/S 753 mmHg 88%
21:00 +24°C° 0 mm 1 m/S 753 mmHg 89%
22:00 +23°C° 0 mm 1 m/S 753 mmHg 89%
23:00 +23°C° 0 mm 1 m/S 753 mmHg 89%

Morgen, 5 Juli, Sonntag

Zeit Temperatur Niederschläge Wind Luftdruck Luftfeuchtigkeit
00:00 +23°C° 0 mm 1 m/S 753 mmHg 89%
01:00 +22°C° 0 mm 1 m/S 753 mmHg 88%
02:00 +22°C° 0 mm 1 m/S 753 mmHg 88%
03:00 +22°C° 0 mm 1 m/S 752 mmHg 87%
04:00 +22°C° 0 mm 1 m/S 752 mmHg 86%
05:00 +22°C° 0 mm 1 m/S 752 mmHg 86%
06:00 +25°C° 0 mm 1 m/S 752 mmHg 76%
07:00 +25°C° 0 mm 0 m/S 752 mmHg 67%
08:00 +28°C° 0 mm 0 m/S 752 mmHg 57%
09:00 +31°C° 0 mm 1 m/S 752 mmHg 53%
10:00 +32°C° 0 mm 2 m/S 752 mmHg 48%
11:00 +35°C° 0 mm 3 m/S 752 mmHg 44%
12:00 +35°C° 0 mm 3 m/S 752 mmHg 44%
13:00 +35°C° 0 mm 3 m/S 752 mmHg 44%
14:00 +35°C° 0 mm 3 m/S 751 mmHg 44%
15:00 +34°C° 0 mm 3 m/S 751 mmHg 47%
16:00 +33°C° 0 mm 3 m/S 751 mmHg 49%
17:00 +33°C° 0 mm 3 m/S 751 mmHg 52%
18:00 +29°C° 0 mm 2 m/S 751 mmHg 62%
19:00 +27°C° 0 mm 1 m/S 751 mmHg 73%
20:00 +24°C° 0 mm 1 m/S 751 mmHg 83%
21:00 +24°C° 0 mm 1 m/S 751 mmHg 82%
22:00 +23°C° 0 mm 1 m/S 751 mmHg 81%
23:00 +23°C° 0 mm 1 m/S 751 mmHg 80%

übermorgen, 6 Juli, Montag

Zeit Temperatur Niederschläge Wind Luftdruck Luftfeuchtigkeit
00:00 +23°C° 0 mm 1 m/S 751 mmHg 80%
01:00 +22°C° 0 mm 1 m/S 751 mmHg 79%
02:00 +22°C° 0 mm 1 m/S 751 mmHg 79%
03:00 +22°C° 0 mm 1 m/S 751 mmHg 78%
04:00 +22°C° 0 mm 1 m/S 751 mmHg 77%
05:00 +22°C° 0 mm 1 m/S 750 mmHg 76%
06:00 +25°C° 0 mm 1 m/S 750 mmHg 67%
07:00 +27°C° 0 mm 1 m/S 750 mmHg 58%
08:00 +28°C° 0 mm 0 m/S 750 mmHg 49%
09:00 +32°C° 0 mm 1 m/S 750 mmHg 46%
10:00 +34°C° 0 mm 2 m/S 750 mmHg 42%
11:00 +35°C° 0 mm 2 m/S 750 mmHg 38%
12:00 +36°C° 0 mm 3 m/S 750 mmHg 39%
13:00 +36°C° 0 mm 3 m/S 749 mmHg 39%
14:00 +36°C° 0 mm 4 m/S 749 mmHg 40%
15:00 +36°C° 0 mm 3 m/S 749 mmHg 44%
16:00 +35°C° 0 mm 3 m/S 749 mmHg 48%
17:00 +34°C° 0 mm 3 m/S 748 mmHg 52%
18:00 +31°C° 0 mm 3 m/S 748 mmHg 62%
19:00 +29°C° 0 mm 2 m/S 749 mmHg 71%
20:00 +26°C° 0 mm 2 m/S 749 mmHg 80%
21:00 +26°C° 0 mm 2 m/S 749 mmHg 78%
22:00 +26°C° 0 mm 2 m/S 749 mmHg 75%
23:00 +25°C° 0 mm 1 m/S 748 mmHg 72%

7 Juli, Dienstag

Zeit Temperatur Niederschläge Wind Luftdruck Luftfeuchtigkeit
00:00 +25°C° 0 mm 1 m/S 748 mmHg 71%
01:00 +25°C° 0 mm 1 m/S 748 mmHg 70%
02:00 +24°C° 0 mm 1 m/S 748 mmHg 69%
03:00 +24°C° 0 mm 1 m/S 748 mmHg 68%
04:00 +24°C° 0 mm 1 m/S 748 mmHg 67%
05:00 +23°C° 0 mm 1 m/S 748 mmHg 66%
06:00 +26°C° 0 mm 1 m/S 748 mmHg 59%
07:00 +29°C° 0 mm 1 m/S 749 mmHg 52%
08:00 +30°C° 0 mm 0 m/S 749 mmHg 44%
09:00 +33°C° 0 mm 1 m/S 749 mmHg 40%
10:00 +35°C° 0 mm 2 m/S 749 mmHg 35%
11:00 +37°C° 0 mm 3 m/S 749 mmHg 31%
12:00 +37°C° 0 mm 4 m/S 749 mmHg 33%
13:00 +37°C° 0 mm 4 m/S 749 mmHg 35%
14:00 +37°C° 0 mm 5 m/S 749 mmHg 37%
15:00 +36°C° 0 mm 4 m/S 749 mmHg 40%
16:00 +35°C° 0 mm 4 m/S 749 mmHg 43%
17:00 +34°C° 0 mm 3 m/S 749 mmHg 46%
18:00 +30°C° 0 mm 3 m/S 749 mmHg 57%
19:00 +28°C° 0 mm 2 m/S 749 mmHg 68%
20:00 +25°C° 0 mm 2 m/S 749 mmHg 80%
21:00 +25°C° 0 mm 1 m/S 750 mmHg 81%
22:00 +24°C° 0 mm 1 m/S 750 mmHg 81%
23:00 +24°C° 0 mm 1 m/S 751 mmHg 82%

8 Juli, Mittwoch

Zeit Temperatur Niederschläge Wind Luftdruck Luftfeuchtigkeit
00:00 +23°C° 0 mm 1 m/S 751 mmHg 81%
01:00 +23°C° 0 mm 1 m/S 751 mmHg 80%
02:00 +23°C° 0 mm 1 m/S 751 mmHg 78%
03:00 +23°C° 0 mm 1 m/S 751 mmHg 77%
04:00 +23°C° 0 mm 1 m/S 751 mmHg 76%
05:00 +23°C° 0 mm 1 m/S 751 mmHg 75%
06:00 +25°C° 0 mm 1 m/S 752 mmHg 69%
07:00 +28°C° 0 mm 1 m/S 752 mmHg 62%
08:00 +30°C° 0 mm 1 m/S 752 mmHg 56%
09:00 +31°C° 0 mm 2 m/S 753 mmHg 54%
10:00 +33°C° 0 mm 3 m/S 753 mmHg 51%
11:00 +34°C° 0 mm 3 m/S 753 mmHg 49%
12:00 +34°C° 0 mm 4 m/S 753 mmHg 50%
13:00 +34°C° 0 mm 4 m/S 753 mmHg 50%
14:00 +34°C° 0 mm 5 m/S 754 mmHg 51%
15:00 +32°C° 0.4 mm 5 m/S 754 mmHg 59%
16:00 +30°C° 0.4 mm 4 m/S 754 mmHg 68%
17:00 +29°C° 0.4 mm 4 m/S 754 mmHg 77%
18:00 +27°C° 0.6 mm 3 m/S 754 mmHg 83%
19:00 +26°C° 0.6 mm 2 m/S 755 mmHg 89%
20:00 +24°C° 0.6 mm 2 m/S 755 mmHg 95%
21:00 +24°C° 0.6 mm 1 m/S 755 mmHg 95%
22:00 +24°C° 0.6 mm 1 m/S 756 mmHg 95%
23:00 +23°C° 0.6 mm 1 m/S 756 mmHg 96%

9 Juli, Donnerstag

Zeit Temperatur Niederschläge Wind Luftdruck Luftfeuchtigkeit
00:00 +23°C° 0.3 mm 1 m/S 756 mmHg 95%
01:00 +23°C° 0.3 mm 1 m/S 756 mmHg 95%
02:00 +23°C° 0.3 mm 1 m/S 756 mmHg 95%
03:00 +23°C° 0.3 mm 1 m/S 756 mmHg 95%
04:00 +23°C° 0.3 mm 1 m/S 756 mmHg 94%
05:00 +23°C° 0.3 mm 1 m/S 756 mmHg 94%
06:00 +24°C° 0.4 mm 2 m/S 756 mmHg 88%
07:00 +26°C° 0.4 mm 2 m/S 757 mmHg 82%
08:00 +27°C° 0.4 mm 2 m/S 757 mmHg 76%
09:00 +27°C° 0.8 mm 3 m/S 757 mmHg 77%
10:00 +27°C° 0.8 mm 4 m/S 757 mmHg 77%
11:00 +28°C° 0.8 mm 5 m/S 757 mmHg 77%
12:00 +28°C° 0.3 mm 6 m/S 757 mmHg 74%
13:00 +28°C° 0.3 mm 6 m/S 757 mmHg 70%
14:00 +28°C° 0.3 mm 6 m/S 756 mmHg 67%
15:00 +28°C° 0 mm 5 m/S 756 mmHg 68%
16:00 +27°C° 0 mm 5 m/S 756 mmHg 70%
17:00 +27°C° 0 mm 5 m/S 756 mmHg 71%
18:00 +25°C° 0 mm 4 m/S 756 mmHg 77%
19:00 +24°C° 0 mm 3 m/S 757 mmHg 84%
20:00 +21°C° 0 mm 3 m/S 757 mmHg 90%
21:00 +21°C° 0 mm 2 m/S 757 mmHg 90%
22:00 +21°C° 0 mm 2 m/S 757 mmHg 90%
23:00 +21°C° 0 mm 2 m/S 757 mmHg 90%
Mehr zeigen